Lamezia, Italy

7:30 AM CET on February 28, 2017 (GMT +0100)
Terme

Weather History for LICA - October, 2013

Change the Weather History Date:

Sunday, October 20, 2013

  Actual Average Record
Temperature  
Mean Temperature 70 °F -  
Max Temperature 78 °F 66 °F 78 °F (2001)
Min Temperature 62 °F 51 °F 48 °F (2002)
Cooling Degree Days 5    
Growing Degree Days 20 (Base 50)    
Moisture  
Dew Point 62 °F    
Average Humidity 80    
Maximum Humidity 94    
Minimum Humidity 61    
Precipitation  
Precipitation 0.00 in - - ()
Sea Level Pressure  
Sea Level Pressure 30.28 in    
Wind  
Wind Speed 9 mph ()    
Max Wind Speed 16 mph    
Max Gust Speed -    
Visibility 6.2 miles    
Events      
Averages and records for this station are not official NWS values.
T = Trace of Precipitation, MM = Missing Value Source: Averaged Metar Reports

Daily Weather History Graph

Daily Weather History Graph

Search for Another Location

Airport or City:

Trip Planner

Search our weather history database for the weather conditions in past years. The results will help you decide how hot, cold, wet, or windy it might be!

Date:

Astronomy

Oct. 20, 2013 Rise Set
Actual Time 7:09 AM CEST 6:09 PM CEST
Civil Twilight 6:42 AM CEST 6:36 PM CEST
Nautical Twilight 6:11 AM CEST 7:07 PM CEST
Astronomical Twilight 5:40 AM CEST 7:38 PM CEST
Moon 7:06 PM CEST (10/20) 8:28 AM CEST (10/20)
Length of Visible Light 11h 54m
Length of Day
11h 00m
Full, 98% of the Moon is Illuminated
Oct 20
Full
Oct 27
Last Quarter
Nov 3
New
Nov 10
First Quarter
Nov 17
Full

Hourly Weather History & Observations

Time (CEST) Temp. Dew Point Humidity Pressure Visibility Wind Dir Wind Speed Gust Speed Precip Events Conditions
12:50 AM 62.6 °F 60.8 °F 94% 30.27 in 6.2 mi East 8.1 mph - N/A   Partly Cloudy
1:50 AM 64.4 °F 60.8 °F 88% 30.27 in 6.2 mi East 9.2 mph - N/A   Partly Cloudy
2:50 AM 62.6 °F 59.0 °F 88% 30.27 in 6.2 mi ENE 9.2 mph - N/A   Partly Cloudy
3:50 AM 62.6 °F 59.0 °F 88% 30.27 in 6.2 mi East 9.2 mph - N/A   Partly Cloudy
4:50 AM 62.6 °F 59.0 °F 88% 30.27 in 6.2 mi ENE 9.2 mph - N/A   Partly Cloudy
5:50 AM 62.6 °F 59.0 °F 88% 30.27 in 6.2 mi ENE 10.4 mph - N/A   Partly Cloudy
6:50 AM 62.6 °F 59.0 °F 88% 30.27 in - ENE 10.4 mph - N/A   Clear
7:50 AM 62.6 °F 59.0 °F 88% 30.27 in - ENE 11.5 mph - N/A   Clear
8:50 AM 68.0 °F 62.6 °F 83% 30.30 in - East 11.5 mph - N/A   Clear
9:50 AM 73.4 °F 64.4 °F 73% 30.30 in - East 12.7 mph - N/A   Clear
10:50 AM 75.2 °F 64.4 °F 69% 30.30 in 6.2 mi East 16.1 mph - N/A   Partly Cloudy
11:50 AM 75.2 °F 64.4 °F 69% 30.30 in 6.2 mi East 16.1 mph - N/A   Partly Cloudy
12:50 PM 77.0 °F 64.4 °F 65% 30.30 in 6.2 mi East 13.8 mph - N/A   Scattered Clouds
1:50 PM 78.8 °F 64.4 °F 61% 30.30 in 6.2 mi East 15.0 mph - N/A   Partly Cloudy
2:50 PM 78.8 °F 64.4 °F 61% 30.27 in 6.2 mi East 12.7 mph - N/A   Partly Cloudy
3:50 PM 77.0 °F 62.6 °F 61% 30.27 in 6.2 mi ESE 10.4 mph - N/A   Partly Cloudy
4:50 PM 77.0 °F 64.4 °F 65% 30.27 in 6.2 mi East 8.1 mph - N/A   Partly Cloudy
5:50 PM 73.4 °F 66.2 °F 78% 30.27 in 6.2 mi SE 4.6 mph - N/A   Partly Cloudy
6:50 PM 69.8 °F 64.4 °F 83% 30.27 in 6.2 mi East 4.6 mph - N/A   Partly Cloudy
7:50 PM 66.2 °F 62.6 °F 88% 30.30 in 6.2 mi ESE 4.6 mph - N/A   Partly Cloudy
8:50 PM 66.2 °F 62.6 °F 88% 30.30 in - ENE 6.9 mph - N/A   Clear
9:50 PM 66.2 °F 62.6 °F 88% 30.30 in - ENE 8.1 mph - N/A   Clear
10:50 PM 66.2 °F 62.6 °F 88% 30.30 in - ENE 8.1 mph - N/A   Clear
11:50 PM 64.4 °F 60.8 °F 88% 30.30 in - East 5.8 mph - N/A   Clear